STARLINK-4510 (53405 NORAD) Tracking and Keplerian Element Data

This shows tracking and keplerian element data for the satellite.

Feedback or suggestion? Click here.




ElementValue
Catalog53405
NameSTARLINK-4510
Epoch Orbit789
Epoch Day270.25001157
Epoch Year2022
RAAN17.9479
Inclination53.2198
Eccentricity0.0001251
Argument of Perigee66.3992
Mean Anonmoly356.9116
Mean Motion15.08791204
Decay Rate0.00051549
L11 53405U 22097T 22270.25001157 .00051549 00000+0 32378-2 0 9999
L22 53405 53.2198 17.9479 0001251 66.3992 356.9116 15.08791204 7890

Live tracking and technical data element details for STARLINK-4510 (NORAD 53405). STARLINK-4510 can be tracked NOW for your location showing map with azimuth and elevation plus other details from your city location.

Track the satellite on the map from your city or location and see movement details for azimuth, elevation, latitude, longitude, range, height, and movement on the map or in text.







IsCatalogInMostPopularTable: catalog: 53405, numindb: 5
Update: records affected: 1



GetName: 53405 STARLINK-4510

Hit Count: updated at: Wed, 05 Oct 2022 09:27:19 GMT